Regional Weather Roundup
Issued by NWS

Home | Current Version | Previous Version | Graphics & Text | Print | Product List | Glossary Off
Versions: 1 2 3 4 5 6 7 8 9 10 11 12 13 14 15 16 17 18 19 20 21 22 23 24 25 26 27 28 29 30 31 32 33 34 35 36 37 38 39 40 41 42 43 44 45 46 47 48 49 50

000
ASUS43 KTOP 261259
RWRKS

WEATHER ROUNDUP FOR KANSAS
NATIONAL WEATHER SERVICE GOODLAND KS
800 AM CDT WED JUL 26 2017

NOTE:  "FAIR" INDICATES FEW OR NO CLOUDS BELOW 12,000 FEET WITH NO
SIGNIFICANT WEATHER AND/OR OBSTRUCTIONS TO VISIBILITY.

KSZ001>006-013>018-027>032-041>047-261400-
NORTHWEST KANSAS

CITY           SKY/WX    TMP DP  RH WIND       PRES   REMARKS
GOODLAND       MOSUNNY   70  66  87 NW18G28   30.02R
HAYS           CLOUDY    81  68  64 S12       29.91S
HILL CITY      CLOUDY    76  71  85 E8        29.90F
RUSSELL        CLOUDY    78  69  73 S16       29.90F
$$

KSZ061>065-074>080-084>089-261400-
SOUTHWEST KANSAS

CITY           SKY/WX    TMP DP  RH WIND       PRES   REMARKS
DODGE CITY     SUNNY     80  64  58 S15G23    29.96S
ELKHART          N/A     73  52  47 W6          N/A
GARDEN CITY    CLOUDY    77  62  59 SW10      29.96S
GREAT BEND     PTSUNNY   80  68  66 S14       29.92S
LIBERAL        SUNNY     79  62  56 SW14      30.02R
$$

KSZ066>073-081>083-090>101-261400-
SOUTHEAST KANSAS

CITY           SKY/WX    TMP DP  RH WIND       PRES   REMARKS
CHANUTE        CLOUDY    80  72  76 S8G22     30.01F
COFFEYVILLE    MOSUNNY   79  73  82 S8        30.01F
HUTCHINSON     CLOUDY    82  68  62 S14       29.95S
MEDICINE LODGE   N/A     79  66  64 S9        29.95S
NEWTON         CLOUDY    81  70  69 S16       29.97F
PARSONS        CLOUDY    79  72  79 S6        30.02F
WICHITA INTL   CLOUDY    80  71  74 S16       29.96S
WICHITA JABRA  CLOUDY    80  70  71 S16       29.97S
WINFIELD       CLOUDY    79  71  76 S12       30.00S
$$

KSZ007>012-019>026-033>040-048>060-102>105-261400-
NORTHEAST KANSAS

CITY           SKY/WX    TMP DP  RH WIND       PRES   REMARKS
CONCORDIA      LGT RAIN  75  75 100 SE6       29.99R
EMPORIA        CLOUDY    77  72  84 S13       29.98F
LAWRENCE       CLOUDY    79  75  87 SE6       29.97F
MANHATTAN      CLOUDY    78  73  84 VRB6      29.99R THUNDER
OLATHE IND     CLOUDY    78  74  87 S7        30.00F
OLATHE EXE     CLOUDY    77  74  90 S8        30.00F
SALINA         CLOUDY    81  73  76 E5        29.97R
TOPEKA BILLARD CLOUDY    79  75  87 CALM      29.98S
TOPEKA FORBES  CLOUDY    79  75  87 S7        29.98S
$$




USA.gov is the U.S. government's official web portal to all federal, state and local government web resources and services.